Torna al catalogo

MIRANDA

X-4

AttivoScienzaPO
NORAD 7213·PAYLOAD·🇬🇧 United Kingdom

Lanciato Mar 9, 1974 da Vandenberg Space Force Base

Loading…

Prossimi Passaggi (prossime 24 ore)

TLE

AggiornatoSource: Space-Track

Epoca: Sep 14, 2026, 00:36 UTC

1 07213U 74013A   26257.02520080  .00000286  00000-0  84633-4 0  9991
2 07213  97.7919 105.3616 0113854  64.8187 296.4762 14.46175084732474

Traccia MIRANDA in tempo reale con AllMySat

Download on the App Store